Location: Newark
(41.8083°N, 72.2500°W)
Time: 21:16:01
(UTC+00:00)

Courier 1B - Pass Details

Date: 03 December 2021
Orbit: 962 x 1209 km, 28.3° (Epoch: 19 January)

Event Time Altitude Azimuth Distance (km) Brightness Sun altitude
Rises 02:22:59 0° 255° (WSW) 3,805 11.0 -55.5°
Enters shadow 02:23:34 - 253° (WSW) 3,639 10.8 -55.6°
Reaches altitude 10° 02:27:02 10° 234° (SW) 2,799 - -56.2°
Maximum altitude 02:30:38 15° 201° (SSW) 2,405 - -56.8°
Drops below altitude 10° 02:34:10 10° 168° (SSE) 2,723 - -57.3°
Sets 02:38:02 0° 146° (SSE) 3,642 - -58.0°
